3 Gehege Außen am Haus Messungen

Zurück zum Überblick

Zeitpunkt Temperatur Luftfeuchte
08.05.2021 06:39:51 17,3 C 46,0%
08.05.2021 06:32:50 17,4 C 46,0%
08.05.2021 06:25:47 17,1 C 46,0%
08.05.2021 06:18:47 17,0 C 46,0%
08.05.2021 06:11:51 17,2 C 46,0%
08.05.2021 04:47:21 16,9 C 46,0%
08.05.2021 04:40:25 17,2 C 46,0%
08.05.2021 04:33:18 16,8 C 46,0%
08.05.2021 04:26:22 16,9 C 46,0%
08.05.2021 04:05:10 16,8 C 46,0%
08.05.2021 03:58:14 17,1 C 46,0%
08.05.2021 03:22:56 17,3 C 46,0%
08.05.2021 03:16:00 16,8 C 46,0%
08.05.2021 02:05:34 17,0 C 47,0%
08.05.2021 01:58:34 16,9 C 47,0%
08.05.2021 01:51:32 17,1 C 47,0%
08.05.2021 01:44:30 17,2 C 47,0%
08.05.2021 01:37:28 17,0 C 47,0%
08.05.2021 01:30:26 17,1 C 47,0%
08.05.2021 01:23:23 17,2 C 47,0%
08.05.2021 01:16:22 17,2 C 47,0%
08.05.2021 01:09:19 17,0 C 47,0%
08.05.2021 01:02:19 17,2 C 47,0%
08.05.2021 00:55:18 17,4 C 47,0%
08.05.2021 00:48:17 17,2 C 47,0%
08.05.2021 00:41:16 17,0 C 47,0%
08.05.2021 00:34:13 17,2 C 47,0%
08.05.2021 00:27:12 17,3 C 47,0%
08.05.2021 00:20:10 17,3 C 48,0%
08.05.2021 00:13:09 17,0 C 48,0%
08.05.2021 00:06:07 17,1 C 48,0%